Погода в Генеральшине

Россия / Курская область     52°04′24″N   35°16′44″E
темп.,
°C
ветер,
м/с
пор.,
м/с
влажн.,
%
обл.,
%
осадки,
мм/ч
давл.,
гПа
погр.,
м
6 августа, пт
пт600:00+17ююв498984 1.8 1012171
03:00+17юв398491 3.1 1011194
06:00+17юв41084100 0.2 1010178
09:00+22ююв51166100 0.2 1009347
12:00+28ююв6744100 0.0 1008887
15:00+30ююв483650 0.0 10072169
18:00+29вюв365112 0.0 1005123
21:00+24ююв61651100 0.0 1005328
7 августа, сб
сб700:00+20сз388097 0.3 1007245
03:00+18всв3391100 1.5 100752
06:00+18юв51290100 0.9 1007274
09:00+22ю61478100 2.0 1008789
12:00+25юз4561100 0.0 10081113
15:00+25ююз3461100 0.0 1009924
18:00+25з3468100 0.0 1009415
21:00+21зсз46787 0.0 1010112
8 августа, вс
вс800:00+17ссз3668100 0.1 1013130
03:00+17ссв3769100 0.1 1014146
06:00+16с3574100 0.0 1015102
09:00+20с4561100 0.0 1015361
12:00+24ссз3448100 0.0 1016834
15:00+26ссв224018 0.0 10151190
18:00+26с11433 0.0 10161093
21:00+21ссв22580 0.0 101712
9 августа, пн
пн900:00+19ссв22640 0.0 101717
03:00+18св336617 0.0 101835
06:00+18ссв36721 0.0 101792
09:00+24св45584 0.0 1017311
12:00+29всв344179 0.0 10171002
15:00+29всв243899 0.0 1017823
18:00+27всв124784 0.0 1016155
21:00+22юв2357100 0.0 101759
10 августа, вт
вт1000:00+20в336399 0.0 101741
03:00+19всв226595 0.0 101718
06:00+18всв3777100 0.0 1017166
09:00+22всв4571100 0.0 1016571
12:00+23в5565100 0.0 10161063
15:00+22всв4571100 0.0 1016892
18:00+20св4680100 0.0 1015442
21:00+17св3895100 0.0 1014212